Simultaneous Nadir Overpasses (SNOs) Predictions

Prediction of SNOs between TERRA and METOP-C Satellite Orbit:

Table of predicted SNOs for the next 14.0 days since TLE Epoch: 9/16/2023
Index Date (TERRA) Time (TERRA) Lat,Lon (TERRA) SZA (TERRA ) Date (METOP-C) Time (METOP-C) Lat,Lon (METOP-C) SZA (METOP-C ) Distance(km) Time Diff (sec)
1 09/17/2023 15:06:59 80.66, -17.07 79.78 09/17/2023 15:07:01 80.67, -16.98 79.79 1.65 2
2 09/20/2023 06:28:17 -80.64, -67.66 99.23 09/20/2023 06:27:55 -80.64, -67.63 99.23 0.59 22
3 09/20/2023 07:17:37 80.70, 100.66 80.90 09/20/2023 07:18:33 80.71, 100.82 80.94 2.98 56
4 09/22/2023 21:49:35 80.63,-118.14 81.80 09/22/2023 21:48:50 80.63,-117.98 81.80 2.85 45
5 09/22/2023 22:38:56 -80.67, 49.92 98.13 09/22/2023 22:39:29 -80.66, 49.80 98.13 2.19 33
6 09/25/2023 13:10:54 -80.58,-169.01 97.25 09/25/2023 13:09:46 -80.58,-168.99 97.28 0.26 68
7 09/25/2023 14:00:13 80.66, -0.48 82.91 09/25/2023 14:00:23 80.67, -0.33 82.93 2.86 10
8 09/28/2023 05:21:31 -80.63, -51.18 96.11 09/28/2023 05:21:18 -80.64, -51.03 96.10 2.91 13



Historial Predications of SNOs between TERRA and METOP-C
